GFSSW_sfc_dewp_003.txt.gz
Dewpoint
53 54 54 54 55 55 55 55 55 55 55 56 56 57 57 58 56 47 26 33 41 66 65 49 44 42 42 38 37 35 31 28 26 24 27 27 27 28 27 26 24 24 26 30 37
52 52 52 53 53 54 54 54 54 54 55 55 56 56 57 58 45 25 40 54 65 65 47 44 41 40 37 35 33 33 30 27 25 25 27 28 28 27 27 27 25 26 29 33 34
52 52 52 52 52 53 53 53 54 54 54 55 55 56 56 55 33 18 66 58 65 62 35 41 38 37 35 33 32 32 31 29 24 24 25 27 25 26 25 25 24 24 24 32 34
52 52 52 52 52 52 52 53 53 53 53 53 54 56 56 46 9 37 65 65 65 43 32 28 33 33 35 32 31 30 31 28 23 22 25 27 26 25 25 25 24 23 23 28 33
52 52 52 52 52 52 52 52 52 52 52 52 54 55 49 33 23 29 67 62 42 34 32 26 29 31 32 32 30 30 29 27 22 22 27 27 25 25 24 24 23 24 26 27 32
52 52 52 52 52 52 53 53 53 53 52 52 54 56 45 26 19 16 35 43 41 36 30 28 30 31 30 30 28 30 28 25 25 24 27 25 26 24 26 25 24 27 28 28 31
53 53 52 52 52 52 53 53 53 53 52 52 53 50 38 26 17 14 15 17 20 25 32 27 26 28 30 28 27 27 26 25 26 25 26 26 25 26 27 27 27 27 31 31 33
54 53 53 52 52 52 53 53 53 52 52 52 53 47 36 24 24 21 21 31 31 31 22 29 27 26 29 29 26 26 26 25 25 26 26 25 25 27 28 28 29 29 29 31 34
52 54 54 53 53 52 52 52 52 52 52 53 51 44 28 35 25 18 16 14 15 26 28 26 28 25 26 26 24 27 24 25 23 25 26 25 25 27 28 29 29 29 30 32 34
51 52 53 54 53 53 53 52 50 49 54 49 41 39 34 19 17 21 18 15 17 19 29 27 28 25 24 24 22 24 25 24 23 25 28 26 26 27 29 28 29 29 31 33 36
49 51 51 52 53 53 50 40 38 42 42 28 28 24 13 19 18 17 19 20 19 17 19 25 25 24 25 26 25 24 24 23 24 25 26 27 27 29 30 28 28 28 29 35 38
49 50 51 51 52 53 49 39 30 37 33 40 35 27 24 20 22 17 24 20 19 17 17 26 25 24 24 24 24 25 24 24 24 26 27 29 29 29 26 26 27 27 29 35 39
48 49 50 51 52 49 43 37 36 36 29 22 23 28 23 21 20 20 18 21 15 14 18 23 24 24 21 23 24 25 25 25 25 27 28 28 26 25 25 26 26 26 30 35 40
48 49 50 51 47 41 37 37 35 36 23 18 18 19 20 22 20 20 18 22 16 12 17 22 22 22 21 22 23 25 24 24 25 27 24 25 21 25 25 23 24 26 30 34 39
49 47 49 50 42 40 37 37 34 37 18 15 17 20 18 21 14 16 18 22 18 13 16 17 19 20 21 22 24 24 24 24 26 27 26 24 22 24 23 21 21 24 27 34 40
49 47 49 44 42 41 41 37 36 28 16 15 19 21 16 18 18 13 16 21 20 13 16 15 18 20 20 22 25 24 23 24 25 25 22 22 21 20 18 19 20 22 25 37 39
50 49 46 41 41 41 42 36 26 18 17 15 18 21 16 16 17 14 15 19 20 17 19 17 16 20 24 25 24 22 25 21 24 23 22 22 20 23 22 19 20 23 30 37 40
51 49 44 39 41 41 41 32 23 17 17 15 16 19 16 16 17 15 16 16 21 19 16 16 16 20 24 25 21 22 24 20 22 21 18 23 21 20 20 20 23 26 33 40 41
50 47 39 38 40 40 41 28 22 18 17 17 15 17 18 16 16 17 17 15 17 21 19 18 19 19 23 24 22 22 22 24 24 22 18 19 22 23 20 23 27 29 38 42 43
47 42 37 36 44 42 37 29 20 18 16 17 17 17 19 16 16 17 20 18 15 18 22 23 23 18 21 24 23 22 23 23 22 23 23 20 21 20 24 25 35 37 40 43 42
45 39 35 36 48 41 31 29 22 19 18 20 20 21 18 18 16 16 16 16 16 14 20 21 25 22 23 26 22 17 17 24 26 22 20 22 20 27 25 32 36 38 41 41 41
42 37 36 47 38 37 33 27 30 20 18 20 23 23 23 20 19 19 17 18 15 17 17 23 28 24 22 23 24 22 20 24 22 26 23 22 22 25 28 33 35 37 39 39 40
37 38 45 46 34 34 28 26 27 25 22 22 22 25 27 27 27 22 21 15 14 18 22 27 28 25 24 24 25 24 21 23 28 31 27 20 21 24 29 33 34 37 38 37 39
40 37 39 43 39 35 33 25 24 29 24 27 24 23 25 27 29 26 21 17 15 16 38 38 32 29 22 25 23 24 20 22 27 26 25 22 22 26 29 31 34 37 40 37 38
39 35 33 33 34 34 32 31 29 20 27 27 25 24 24 27 26 24 21 20 18 29 31 38 32 27 23 19 21 22 20 18 22 25 25 25 24 26 28 29 32 38 40 38 37
38 35 35 37 32 30 31 27 26 23 25 25 22 24 25 27 29 26 24 28 24 22 25 37 34 28 23 18 18 22 22 22 19 21 24 25 26 26 27 26 30 37 38 38 37
42 40 38 33 34 31 32 27 25 25 21 28 25 24 24 26 32 33 33 36 35 26 32 34 31 31 24 20 17 20 22 22 22 20 23 24 27 27 26 27 29 34 36 38 39

GFSSW_sfc_dewp_006.txt.gz
Dewpoint
52 52 53 53 53 53 54 54 54 55 55 55 55 56 56 57 56 42 33 29 36 65 65 46 45 44 43 41 38 37 33 31 30 26 25 26 26 29 29 27 27 25 24 30 37
52 52 53 53 53 53 53 54 54 54 54 54 54 55 56 57 43 30 42 57 65 65 44 43 44 43 40 38 36 34 33 31 31 28 24 24 25 27 26 28 27 26 27 33 35
52 52 52 52 53 53 53 53 53 53 53 53 54 55 56 54 34 15 63 63 64 63 31 37 41 41 38 36 34 33 31 31 32 31 26 23 23 27 25 26 26 25 25 32 32
52 52 52 52 52 53 53 53 53 53 53 52 53 55 56 43 13 36 65 66 65 41 30 28 33 38 36 35 34 31 32 31 31 30 26 21 22 27 25 26 26 25 25 31 35
53 52 52 52 52 53 53 53 53 53 53 52 53 54 45 25 22 25 64 63 48 32 28 27 28 35 34 33 33 33 31 30 30 29 27 22 23 27 25 26 25 24 25 29 34
54 54 53 53 53 53 53 53 54 54 53 52 53 54 42 27 19 19 23 43 33 29 25 27 26 27 29 29 29 32 31 29 29 29 26 23 25 26 27 28 25 25 26 28 31
53 54 54 53 53 53 53 53 53 53 52 52 53 47 37 27 24 23 19 22 37 34 27 25 27 28 27 28 30 30 28 27 27 26 25 26 25 26 27 28 28 28 29 31 33
52 52 53 54 54 54 53 53 53 53 52 52 52 44 34 28 29 27 24 22 15 20 28 30 29 26 26 28 28 27 28 23 25 26 25 26 25 27 28 29 31 29 29 31 37
51 51 52 51 52 54 53 53 53 52 53 52 46 37 22 35 31 27 23 19 24 26 27 24 22 28 24 24 25 27 24 24 24 25 24 24 26 27 28 30 33 33 33 32 35
48 51 51 52 51 53 53 53 51 52 47 45 35 32 35 31 23 26 21 18 16 20 18 23 23 24 24 22 22 25 22 22 24 26 23 24 26 28 29 28 35 35 34 35 37
47 49 51 52 52 51 49 43 37 44 37 34 31 24 20 28 28 18 19 18 17 15 15 22 24 24 26 26 22 24 22 23 26 24 27 29 31 29 29 29 32 35 37 40 41
49 47 48 51 51 51 46 41 37 36 32 35 34 27 24 21 18 16 17 18 17 14 15 16 25 24 24 24 22 21 22 23 23 22 23 24 26 29 29 32 32 31 34 38 42
51 49 47 49 51 47 40 40 40 38 30 27 29 36 34 26 23 19 15 17 16 14 13 14 17 22 23 21 20 23 24 24 23 23 24 26 27 29 28 29 28 31 35 37 44
52 51 49 49 45 42 40 38 40 35 26 18 20 20 26 32 25 22 18 18 17 14 14 12 12 18 22 19 21 24 22 23 24 24 22 25 24 30 28 29 27 26 33 36 43
52 51 50 47 42 39 40 39 33 34 20 16 14 19 18 27 21 22 20 17 20 14 13 12 13 15 22 21 21 22 22 23 24 25 25 24 23 24 28 27 25 24 27 37 43
51 51 51 42 40 38 38 41 36 27 16 15 13 15 17 21 23 15 20 19 16 17 14 11 11 16 19 21 21 20 22 24 24 23 23 24 24 23 24 22 21 21 24 37 41
51 51 50 42 35 38 40 39 28 20 15 14 14 15 16 17 19 20 19 19 17 17 19 13 9 12 18 18 21 21 27 22 24 21 22 23 22 26 28 23 19 21 33 40 43
51 51 48 45 37 38 40 38 25 16 17 14 13 16 17 17 17 19 16 16 19 18 15 14 10 11 15 19 19 22 28 21 22 21 20 25 24 22 23 22 22 23 34 42 43
49 45 47 44 39 38 40 30 22 19 14 14 15 16 18 18 15 18 20 16 16 21 20 16 12 13 13 18 20 24 23 23 23 21 18 20 26 27 26 22 23 26 38 45 45
47 45 41 42 41 44 37 29 24 21 17 16 16 18 20 18 17 18 20 18 16 18 25 23 21 16 13 19 22 26 22 22 21 23 24 20 21 21 25 24 31 36 40 47 46
47 40 40 41 46 41 31 27 24 25 21 19 16 18 20 21 22 16 18 16 15 15 22 25 30 22 19 22 22 23 21 24 26 22 22 23 21 33 31 38 43 40 42 46 45
42 36 41 39 37 36 33 30 29 24 23 23 21 20 23 23 25 26 19 20 14 18 20 25 29 26 21 19 23 25 24 27 24 28 24 22 22 33 35 33 41 40 42 42 43
41 39 45 47 32 32 32 28 26 24 22 20 22 23 27 26 25 27 27 19 16 19 24 28 29 28 26 24 26 25 25 26 32 35 30 21 22 32 31 33 34 42 40 41 42
42 35 42 45 40 34 29 27 27 29 26 20 27 27 29 28 26 27 27 26 15 18 35 37 32 30 26 26 27 28 25 22 27 28 23 23 23 30 30 30 33 41 42 40 42
42 36 34 33 34 33 33 30 24 26 27 24 24 25 27 26 26 26 29 32 32 31 34 37 30 31 26 22 21 22 22 21 23 26 23 25 24 26 32 32 34 40 41 39 39
39 36 35 36 31 29 29 29 21 22 22 25 27 23 26 27 26 29 29 32 33 36 30 40 31 31 23 22 21 20 21 22 21 20 23 24 26 30 33 32 32 39 39 37 39
42 40 35 32 32 32 31 27 27 27 24 22 25 26 27 29 27 30 31 33 34 35 38 38 32 31 29 22 21 22 22 22 24 23 24 23 29 30 29 29 33 41 41 40 40

GFSSW_sfc_dewp_009.txt.gz
Dewpoint
52 53 53 53 54 53 53 54 54 54 54 54 55 56 56 57 56 48 41 35 39 60 63 49 52 46 44 44 44 43 36 34 33 31 31 27 24 27 29 27 29 26 26 38 42
53 53 53 53 53 54 53 53 53 54 54 54 54 54 55 56 49 36 42 56 57 64 44 45 44 43 42 42 42 40 35 34 35 33 31 29 25 23 27 28 30 30 35 40 40
53 53 54 53 52 54 53 53 53 53 53 53 53 54 55 55 44 19 65 61 60 63 33 33 42 43 42 42 40 37 35 34 33 33 32 31 24 23 23 27 31 28 33 36 38
53 54 53 54 53 54 54 53 52 53 53 53 53 54 55 51 13 35 65 66 64 52 33 29 31 37 40 40 39 36 35 34 33 33 32 30 27 25 23 28 29 29 34 34 35
52 52 53 55 54 54 54 54 53 52 52 53 53 53 51 38 29 27 65 64 58 48 32 28 25 27 30 38 38 36 35 34 33 33 30 29 28 27 23 30 33 27 29 36 36
52 52 51 53 55 54 54 53 54 53 53 52 52 53 49 32 26 21 20 36 40 36 30 28 26 25 27 33 35 35 33 33 33 33 30 29 29 27 28 31 29 25 27 28 30
51 52 52 52 53 54 54 54 53 53 53 53 53 48 40 32 29 27 27 24 34 32 28 26 27 26 27 25 26 27 27 27 29 30 28 29 28 26 31 29 29 27 27 28 32
49 50 51 51 51 52 53 53 53 53 53 53 53 46 35 28 32 30 27 24 24 32 30 29 25 24 25 28 26 25 26 26 28 29 27 26 25 28 30 29 31 31 31 32 35
51 50 49 50 51 51 52 52 52 51 52 53 49 43 26 30 29 27 28 23 20 22 35 33 29 24 27 24 23 23 22 25 27 28 27 27 25 28 31 28 31 34 35 33 35
52 51 50 49 50 52 52 51 49 51 48 46 42 34 31 28 19 28 27 27 23 22 21 17 18 18 18 24 20 21 23 24 26 27 25 25 28 29 31 29 31 33 35 36 41
52 52 51 50 49 51 49 42 39 44 43 38 35 25 23 30 32 28 28 27 25 22 18 26 18 19 22 19 24 22 24 24 26 26 24 30 29 31 33 31 30 35 37 39 41
51 51 51 51 49 50 48 40 38 38 35 36 35 31 25 24 24 25 24 25 22 19 15 15 15 15 24 22 24 24 22 22 24 25 28 29 29 31 33 32 33 33 34 36 45
52 52 52 51 50 46 42 39 38 38 36 33 32 32 34 33 27 25 24 19 18 16 14 12 14 15 24 23 23 24 24 22 23 26 26 27 27 29 32 32 32 33 34 42 43
51 52 52 51 45 40 38 40 39 39 33 21 23 27 28 35 33 30 27 18 18 15 13 12 12 14 22 24 23 22 25 23 22 25 24 29 24 28 29 29 30 29 36 42 43
51 51 51 50 41 35 36 37 38 37 19 15 16 24 26 33 30 31 28 22 15 15 14 13 11 13 13 22 22 22 23 22 24 24 25 24 24 26 29 29 28 27 35 41 43
51 51 51 48 47 38 36 39 39 28 19 14 15 17 20 29 29 26 27 25 17 16 15 15 15 12 12 13 21 23 22 24 24 25 24 26 26 24 28 27 25 24 29 43 44
50 50 49 46 42 40 36 39 32 23 16 7 14 16 17 20 27 29 24 22 19 14 17 16 13 13 11 13 15 23 21 20 24 21 23 24 24 24 29 30 23 36 40 42 44
51 51 48 45 45 43 39 37 26 18 21 21 17 14 15 17 22 26 25 20 18 16 16 16 14 12 11 11 16 17 21 20 21 24 22 24 22 23 30 29 30 37 41 43 44
50 46 44 44 44 45 39 29 23 22 18 16 16 15 17 17 19 21 23 20 18 17 15 15 15 15 12 10 13 18 21 22 22 26 22 23 25 34 27 25 31 40 41 43 45
46 44 41 42 45 44 35 29 25 24 20 18 18 16 16 17 21 22 19 21 19 18 18 20 18 16 12 11 12 15 25 22 26 19 21 23 25 27 26 25 38 42 42 45 46
45 40 40 41 46 39 31 28 27 26 25 22 20 20 20 20 20 21 24 24 20 18 17 18 24 21 14 12 10 14 23 24 22 22 22 22 26 30 30 38 39 43 44 44 44
42 35 45 43 37 35 33 29 31 28 28 24 23 21 21 24 26 25 25 27 23 18 16 17 27 21 23 15 14 18 23 26 20 26 23 25 26 39 41 42 41 43 44 44 43
39 38 45 44 32 31 30 29 28 26 26 27 27 24 22 26 30 29 28 27 29 31 17 17 18 26 20 22 18 23 23 24 29 28 27 24 26 34 39 42 42 42 43 42 42
40 32 38 42 38 34 31 27 25 26 26 27 29 29 22 26 28 29 30 28 31 31 46 29 21 17 24 23 21 21 24 23 27 29 25 26 24 31 36 38 41 41 41 41 41
39 34 35 30 32 31 31 29 25 24 23 23 31 28 23 26 29 29 30 30 31 38 32 33 17 27 21 22 25 21 23 24 23 25 24 25 26 29 33 33 40 40 39 40 40
37 36 36 33 32 29 31 28 25 25 22 23 27 31 29 27 29 33 32 32 30 31 29 33 25 21 22 24 20 22 22 23 23 23 24 25 25 31 35 33 40 39 38 38 39
42 43 38 32 31 32 31 31 31 28 26 25 23 25 27 29 37 35 33 33 32 30 28 31 37 24 19 20 23 20 23 23 23 25 23 20 24 29 33 31 37 38 37 38 38

GFSSW_sfc_dewp_012.txt.gz
Dewpoint
54 54 54 54 54 54 53 53 54 54 54 54 54 54 54 55 56 48 33 33 41 62 64 56 54 48 47 45 45 44 39 37 36 34 34 35 31 27 28 29 27 27 34 38 40
54 54 54 54 54 54 53 53 53 53 54 54 54 54 54 55 51 43 43 56 57 63 49 47 44 47 43 42 43 42 40 39 40 37 35 35 32 27 24 26 29 34 40 41 40
52 53 53 54 54 54 54 53 52 52 52 53 53 53 54 54 41 31 57 56 58 62 36 40 45 43 41 42 41 41 39 40 39 37 36 35 34 33 25 23 25 30 38 40 40
52 51 51 52 53 54 55 54 53 52 52 52 53 53 54 51 9 21 63 66 66 53 39 30 31 39 41 40 40 40 40 40 39 38 36 34 33 31 27 26 28 33 38 40 39
51 52 51 51 51 53 55 54 53 53 53 53 53 53 50 43 25 20 58 61 58 48 41 31 30 29 32 39 41 40 40 39 38 37 35 34 33 30 29 31 31 32 36 38 39
49 49 50 51 51 52 53 54 54 54 53 53 53 53 48 29 25 27 25 23 22 45 38 31 27 27 26 29 31 38 39 39 38 37 36 33 33 31 31 33 31 30 34 34 37
51 50 49 49 50 51 52 52 52 53 52 52 53 50 45 36 29 29 27 27 24 36 34 33 29 27 26 23 25 27 31 34 35 31 29 29 29 29 32 31 30 27 29 33 35
52 52 51 49 48 50 51 52 52 51 51 51 53 48 41 37 36 29 18 12 22 27 29 29 30 27 26 26 25 25 25 23 25 28 28 29 27 29 31 31 31 30 27 29 33
52 52 52 51 50 48 50 52 51 50 50 50 48 47 36 37 32 27 30 24 14 18 23 26 28 25 26 23 22 24 22 22 23 26 28 29 27 30 30 29 30 31 33 33 32
51 52 52 52 51 50 50 51 50 49 46 46 46 42 37 26 25 23 23 26 22 26 21 23 30 25 22 24 20 22 22 23 23 24 27 27 27 28 30 30 30 31 34 37 36
50 51 52 52 52 51 49 43 38 44 45 41 38 30 24 27 29 26 27 25 27 27 18 23 30 27 27 22 22 25 24 23 23 24 27 27 27 28 29 34 29 30 33 36 40
50 50 50 52 52 52 47 41 35 38 34 36 39 38 30 28 26 26 29 27 25 21 21 20 20 26 19 19 19 20 22 23 23 24 25 24 26 27 29 34 31 31 33 39 45
51 51 51 52 52 46 42 39 40 39 35 35 34 34 36 34 31 27 27 27 22 20 16 15 18 20 19 20 22 20 19 23 24 25 25 25 26 29 31 33 31 32 35 44 45
51 51 51 52 46 40 35 37 36 39 33 30 29 32 34 34 33 33 31 27 22 16 17 15 16 20 19 15 19 21 23 21 26 27 23 27 23 27 28 27 29 29 34 43 43
51 50 51 51 44 41 35 36 36 38 18 16 17 31 30 31 30 32 33 28 24 17 16 13 13 14 13 13 14 23 24 25 27 26 23 22 23 24 28 26 28 29 40 42 42
50 50 50 47 47 45 44 43 38 28 19 18 17 16 25 28 25 31 31 28 26 20 16 14 16 13 13 13 15 22 25 25 25 24 22 22 24 23 26 27 29 29 40 43 45
49 49 49 46 40 44 44 39 29 25 19 16 16 16 16 24 26 26 29 25 22 17 14 15 14 14 13 12 15 21 22 21 20 22 22 25 26 26 29 31 28 28 41 44 46
50 50 48 46 46 45 41 37 26 19 20 20 20 18 16 19 20 26 28 22 23 15 13 13 13 15 15 13 11 11 17 21 17 21 22 25 22 22 28 30 32 41 43 45 47
49 45 42 44 45 44 39 29 22 21 21 20 22 19 19 21 21 22 25 23 20 22 17 13 14 20 15 14 13 13 11 19 20 26 21 23 24 31 31 36 40 42 43 45 46
45 41 41 43 45 44 36 27 27 27 26 25 21 21 20 20 21 24 24 25 23 21 23 20 18 18 16 14 14 11 21 20 24 19 20 23 24 25 25 36 40 41 43 45 46
41 36 39 42 47 40 30 27 27 26 27 26 25 22 20 22 23 27 24 26 29 25 21 18 21 24 16 14 11 11 11 21 22 23 21 20 22 28 29 34 40 40 42 44 46
37 32 40 46 37 35 32 28 31 27 29 27 27 23 21 26 27 25 25 26 31 31 29 19 20 17 18 17 14 12 13 20 19 21 22 23 21 32 34 40 39 40 43 44 45
34 35 44 46 30 32 32 30 29 29 29 27 27 29 28 27 22 30 31 31 31 32 30 31 18 19 22 20 22 11 15 21 25 28 23 19 21 36 41 40 40 41 43 44 45
34 29 34 41 38 35 31 30 28 27 26 26 29 26 28 26 25 24 30 29 33 31 39 34 27 16 17 19 21 18 12 24 23 24 25 20 25 32 41 41 42 43 43 43 44
34 29 34 26 29 31 29 29 27 27 26 25 27 29 28 27 23 24 24 28 31 34 31 29 27 18 15 19 24 21 14 18 25 24 21 24 25 30 40 40 42 43 42 41 43
36 34 35 31 31 29 30 28 29 31 29 28 26 28 27 29 30 28 28 31 31 31 29 30 29 23 16 15 15 16 22 19 22 26 25 25 27 31 39 40 41 41 40 40 41
42 43 39 34 28 29 29 31 33 34 32 30 30 28 28 27 34 35 35 33 33 31 30 30 31 30 17 19 16 14 17 24 23 25 26 22 24 29 33 39 40 40 40 39 40

GFSSW_sfc_dewp_015.txt.gz
Dewpoint
53 54 54 54 55 54 54 53 53 53 53 54 54 54 54 55 55 43 25 33 41 60 63 60 54 50 46 45 45 43 39 37 37 35 35 35 34 36 30 27 28 27 36 37 40
52 52 52 53 54 55 54 54 53 53 53 53 53 53 54 55 51 43 44 54 58 63 49 51 49 47 44 44 44 41 40 37 36 38 36 37 37 36 31 32 27 30 36 42 39
51 52 52 51 52 52 53 53 54 53 53 53 53 53 54 54 38 21 56 56 56 60 38 45 45 45 42 42 42 42 38 37 37 40 40 38 37 37 34 32 29 28 32 40 39
49 49 50 51 51 51 51 52 53 54 54 53 53 53 54 50 9 14 63 67 65 52 37 32 40 42 40 39 40 39 41 40 38 39 40 38 38 36 35 34 34 31 35 40 39
51 51 50 49 49 51 51 51 52 52 53 53 53 53 50 44 25 16 59 56 53 47 37 29 29 35 35 40 39 39 38 38 40 41 40 39 37 36 35 36 36 32 39 40 39
52 52 51 51 50 49 51 52 52 52 52 52 52 53 47 36 23 29 25 23 22 44 42 33 29 28 27 27 29 37 38 39 40 41 40 38 37 37 35 36 33 32 38 39 39
53 53 52 52 51 51 50 50 51 52 51 51 51 48 44 41 36 32 27 26 23 23 33 38 32 27 27 24 24 25 24 25 28 32 33 36 31 32 33 33 32 32 33 37 39
52 52 52 51 52 52 51 52 50 49 50 51 51 46 40 43 44 43 39 28 18 20 28 30 34 29 28 26 25 24 26 23 25 28 29 27 26 29 29 31 32 32 30 34 37
52 52 51 50 51 52 52 52 51 50 49 49 44 44 38 44 42 40 32 22 11 13 21 25 28 27 26 24 23 24 19 21 22 26 27 28 26 29 32 32 32 31 32 30 32
51 51 51 51 51 52 52 51 50 48 46 45 43 42 41 28 27 23 27 26 21 16 19 21 26 25 23 23 20 18 21 19 19 23 25 24 26 28 30 31 30 31 33 34 32
50 51 51 51 51 51 50 42 32 38 43 39 36 32 26 34 30 24 25 24 24 25 14 19 18 25 24 24 24 23 21 21 22 25 25 26 28 28 29 29 31 32 32 34 38
50 50 50 50 50 51 48 38 37 37 36 37 36 38 40 40 35 31 25 24 26 12 17 20 16 20 29 26 25 24 22 22 23 25 25 25 24 26 27 27 30 32 33 36 45
51 50 50 51 51 46 41 40 40 39 36 35 34 34 32 35 34 32 28 27 22 18 14 11 16 18 28 29 27 24 21 21 21 27 26 25 25 26 26 29 32 35 34 39 42
51 51 51 51 45 41 40 37 39 39 31 29 33 32 32 32 29 30 28 28 24 17 14 13 12 16 22 27 23 17 20 20 21 23 22 27 23 26 27 28 29 28 29 34 45
51 50 50 50 45 40 41 43 44 38 16 15 25 32 32 30 27 26 26 27 25 17 15 11 11 11 17 19 19 18 22 25 25 23 24 25 23 24 29 27 28 28 29 40 45
50 50 50 44 45 44 45 45 39 30 18 16 19 20 20 32 29 28 29 25 27 25 17 12 16 11 12 19 19 19 22 25 25 25 22 23 24 23 24 26 27 29 40 42 44
50 49 49 46 40 43 45 39 30 23 19 14 20 19 20 22 28 29 28 25 21 21 20 18 13 15 15 15 17 16 19 19 20 21 22 23 24 23 27 29 30 27 39 44 47
50 50 47 47 45 45 42 33 24 19 20 22 23 18 20 22 21 25 24 26 22 19 18 16 14 14 16 13 14 14 17 23 18 20 21 24 23 24 29 30 32 31 40 45 47
49 43 44 43 46 44 40 23 20 24 23 24 22 18 18 20 22 25 26 23 25 20 15 16 14 19 15 14 12 12 18 21 20 25 21 23 25 28 33 37 39 42 44 45 47
44 42 40 41 45 44 35 24 27 27 26 25 22 21 20 19 21 23 26 29 29 27 23 22 14 17 15 15 14 13 14 12 19 18 19 22 23 24 26 35 41 42 43 45 47
40 36 36 45 46 39 30 29 27 26 25 25 25 23 22 19 24 22 25 26 31 31 32 23 20 22 19 16 13 13 13 16 13 18 20 19 22 29 25 35 39 41 43 45 47
36 30 38 47 36 35 31 29 32 28 30 29 28 26 23 21 21 18 20 24 32 32 29 31 20 18 16 18 16 14 12 13 19 21 20 22 21 28 28 34 38 40 43 45 47
34 33 41 42 29 31 34 31 30 29 28 28 27 28 27 27 24 22 27 30 28 27 29 32 27 17 16 20 19 13 13 12 18 25 23 19 20 35 37 33 39 40 43 45 46
36 29 32 38 36 32 30 29 29 29 28 27 27 30 27 27 28 27 23 22 24 25 37 32 31 23 14 16 19 16 12 13 15 15 16 21 23 36 39 39 40 41 43 45 45
33 29 34 26 28 29 31 29 27 31 29 27 25 28 25 31 29 25 25 25 24 31 31 29 27 30 27 16 17 22 16 11 15 15 19 20 23 33 39 40 40 41 43 44 45
36 34 36 35 32 29 28 29 30 31 35 30 29 31 31 29 31 33 31 30 27 29 30 30 25 30 29 22 16 14 20 14 16 18 22 24 23 32 39 40 42 42 42 43 44
38 42 38 32 29 26 28 30 30 33 33 33 32 31 28 28 32 32 34 32 32 29 28 29 29 25 27 22 17 16 15 17 20 22 21 22 25 30 38 40 41 42 41 42 43

GFSSW_sfc_dewp_021.txt.gz
Dewpoint
50 50 50 49 50 50 51 51 52 52 53 54 54 54 54 54 54 40 19 31 40 58 63 54 51 47 46 42 46 45 38 31 30 31 27 35 34 36 36 37 35 35 37 37 41
51 51 50 50 51 50 49 50 50 50 51 53 54 54 54 54 48 39 40 52 57 62 47 41 39 45 42 43 43 41 38 33 32 31 31 35 35 37 38 37 37 38 40 38 40
51 51 52 52 52 52 50 50 50 50 50 50 52 53 53 53 29 10 59 57 54 60 32 35 35 42 40 43 42 41 38 36 34 35 36 35 36 37 36 35 35 37 39 41 41
51 51 51 51 51 50 50 50 50 51 49 50 51 52 53 48 14 34 52 54 63 48 33 27 35 40 35 37 41 38 40 39 37 37 37 36 37 38 38 38 40 40 42 42 42
51 51 51 51 50 49 50 50 51 51 51 50 50 50 47 42 28 20 47 44 37 48 34 29 33 30 27 32 34 40 37 39 40 40 40 40 39 39 38 38 38 40 42 42 42
50 50 50 51 49 50 49 50 52 52 51 50 50 49 43 35 38 39 40 36 19 31 36 29 32 34 31 30 31 31 36 37 38 38 38 37 36 37 38 40 38 39 38 37 38
50 50 50 50 49 49 49 50 51 51 51 50 50 44 41 35 39 39 38 39 34 27 21 32 29 31 31 31 33 34 34 35 35 36 36 33 28 29 31 33 34 34 36 37 38
50 51 50 50 50 49 49 51 51 51 51 51 51 43 37 39 40 40 41 40 40 37 32 22 28 25 28 28 25 23 25 20 21 26 26 25 22 23 28 30 32 33 34 35 38
51 51 50 50 50 50 51 51 50 50 49 48 46 41 34 40 36 39 41 36 32 35 31 22 24 29 27 25 25 25 18 21 20 25 24 27 22 21 28 30 31 32 32 33 35
50 51 51 50 49 50 51 50 48 46 44 43 40 36 30 25 35 33 38 40 34 28 26 22 24 24 23 20 18 20 21 20 20 19 19 18 21 22 27 28 31 32 33 35 38
50 50 50 48 49 50 48 42 37 37 37 34 32 32 29 29 31 26 33 38 35 22 18 18 18 19 19 21 20 21 22 22 22 19 18 18 21 26 29 28 29 32 35 38 41
50 50 50 50 50 49 43 37 38 38 35 35 34 34 34 33 30 25 28 28 28 17 16 15 14 17 21 20 19 18 20 21 21 20 22 22 23 26 29 30 29 31 35 37 39
51 50 50 50 50 44 42 40 41 43 35 32 33 34 34 35 34 30 28 25 23 19 13 13 13 13 17 20 20 19 18 18 18 19 24 25 23 25 25 29 30 31 36 38 40
51 51 51 50 43 42 39 41 44 44 31 24 30 31 33 33 31 33 27 23 21 18 15 12 11 10 12 16 20 19 20 18 18 20 17 24 20 26 26 26 27 30 35 37 38
50 50 50 48 44 38 39 44 43 40 7 14 30 33 29 27 27 26 31 23 22 18 15 13 11 10 9 11 20 18 20 22 21 21 23 23 22 22 25 25 26 29 35 38 41
50 49 49 44 44 40 43 44 40 28 10 15 23 21 19 25 25 26 27 26 23 24 16 14 13 11 10 13 20 22 21 22 25 23 22 23 20 19 20 23 25 30 33 41 47
49 49 48 44 39 44 44 40 26 17 14 18 22 21 17 20 25 24 24 24 19 21 22 18 13 12 10 12 18 23 24 20 19 19 19 21 21 23 24 25 30 31 33 44 48
50 48 45 43 45 45 43 33 18 12 20 22 23 18 13 21 27 23 26 30 23 22 20 19 15 14 11 11 14 23 25 17 15 16 14 22 19 20 29 28 29 32 35 44 48
48 43 42 43 44 46 39 24 15 20 24 24 21 14 13 19 18 17 27 35 29 20 19 20 17 18 14 12 19 21 22 22 19 25 18 22 26 31 32 32 34 33 39 45 49
42 41 38 43 46 44 36 25 25 25 26 24 19 19 18 18 16 16 24 33 34 33 33 26 20 19 16 11 14 22 24 20 18 13 12 19 25 21 29 30 33 38 42 46 49
41 37 37 46 47 38 31 29 30 29 28 26 22 21 20 18 18 20 21 25 37 32 34 29 27 20 17 14 11 14 19 19 19 18 10 11 14 34 32 34 35 40 44 47 48
39 33 39 45 36 35 30 29 33 29 29 29 28 29 25 22 20 22 22 23 32 36 34 32 33 23 18 16 15 16 18 21 14 20 18 18 18 31 36 34 38 40 45 47 48
35 35 41 45 30 30 30 27 30 28 29 29 27 26 26 25 24 25 25 28 30 32 33 36 30 22 19 19 18 17 16 22 22 24 19 12 17 29 38 35 36 41 44 47 48
38 31 37 39 36 31 29 25 27 29 31 34 30 28 28 25 25 28 28 26 27 29 36 38 31 28 17 20 23 18 16 17 22 15 15 15 13 22 28 31 38 42 46 47 48
38 33 34 30 32 32 31 28 27 26 29 29 30 29 32 28 26 33 34 35 32 35 34 35 27 26 25 25 26 24 15 15 17 17 16 16 16 21 25 32 39 43 46 47 47
37 35 36 34 33 30 29 25 27 27 29 25 29 28 29 28 28 28 33 34 36 34 35 35 28 28 24 23 24 24 23 16 15 15 18 19 22 21 25 37 40 43 45 45 46
39 41 39 32 31 31 29 32 33 34 31 31 30 30 29 29 31 33 33 32 32 35 33 33 31 27 21 23 23 21 23 23 18 17 16 16 21 27 32 38 42 43 45 45 46

GFSSW_sfc_dewp_024.txt.gz
Dewpoint
52 52 52 51 52 52 51 50 50 50 51 52 53 55 54 54 54 40 23 32 38 60 60 48 45 45 43 38 42 39 33 29 28 27 28 31 30 34 36 35 34 34 35 37 39
51 51 51 52 52 52 52 52 52 50 50 50 51 52 53 54 46 36 45 51 58 60 29 38 37 36 39 40 41 40 33 30 30 30 28 29 32 32 34 35 34 34 36 38 40
51 51 51 51 50 51 50 51 52 52 51 50 50 52 52 51 36 16 56 59 56 56 19 25 29 29 29 32 38 38 35 32 32 32 32 31 32 32 32 33 35 34 35 37 39
50 50 50 51 50 51 51 50 50 51 51 51 51 50 52 44 10 41 50 54 59 57 33 22 29 26 29 26 33 34 35 35 34 33 33 34 35 34 34 35 36 37 37 36 38
50 50 50 50 50 49 49 49 50 51 51 52 51 50 46 36 24 29 50 48 31 43 31 25 28 28 30 29 27 30 33 34 34 36 35 36 35 35 34 35 36 36 36 37 38
49 50 50 50 50 49 49 49 50 51 51 51 50 51 41 31 26 32 35 34 30 30 36 28 23 27 32 31 29 28 26 27 30 31 33 32 33 33 33 34 35 35 31 30 32
50 50 50 50 50 50 49 51 51 52 51 51 50 47 42 32 30 32 31 31 33 25 21 31 24 30 32 32 32 30 28 29 30 30 29 30 30 31 31 32 32 30 30 30 32
51 51 50 50 50 50 50 51 51 51 51 51 50 46 37 31 32 32 32 32 32 34 28 22 27 28 31 31 28 27 29 28 30 31 32 32 28 27 26 26 26 28 27 29 33
50 51 50 50 49 49 51 51 51 50 50 50 46 44 27 39 33 32 32 30 27 31 33 22 20 26 24 23 24 25 24 26 27 27 26 26 27 27 26 26 28 29 31 31 31
50 51 51 50 50 50 51 51 48 48 44 44 39 35 30 16 26 34 29 35 33 27 31 23 18 18 20 20 19 21 22 23 25 26 24 23 25 26 27 25 27 30 31 32 32
50 51 51 51 50 51 47 36 34 34 35 28 23 29 21 18 23 24 25 34 34 30 24 22 15 15 18 22 21 21 23 23 25 25 26 25 25 26 27 25 28 30 32 34 35
50 50 50 51 50 51 42 33 36 38 33 29 27 26 23 23 24 23 22 27 31 24 23 19 15 16 17 19 21 20 20 22 23 23 25 26 25 26 27 28 30 30 31 33 34
51 50 50 50 50 46 38 38 39 41 33 26 24 24 24 27 26 24 22 21 22 24 19 17 17 14 12 16 17 20 20 20 19 23 26 25 25 26 27 29 29 30 33 33 32
51 51 50 50 44 39 35 39 39 41 28 14 25 28 30 31 29 30 27 19 19 20 21 17 16 14 12 12 13 17 19 18 20 22 20 23 20 26 27 30 30 31 31 31 30
51 50 50 49 41 37 36 40 41 40 6 12 27 30 25 26 25 27 29 27 15 19 21 17 15 15 14 13 13 16 18 20 22 22 22 20 20 24 27 28 30 31 31 29 35
51 50 49 43 41 39 38 41 41 29 8 10 20 21 19 21 22 25 25 29 25 14 18 20 16 14 15 12 13 15 16 19 21 20 20 22 22 22 25 30 30 28 26 29 42
50 49 46 43 39 42 42 38 28 14 9 10 20 19 16 14 19 26 23 25 23 16 11 19 18 16 13 13 14 17 21 16 18 19 21 25 24 27 30 27 27 26 30 41 46
49 48 45 42 43 44 40 33 18 9 10 14 17 16 11 12 19 20 23 26 29 19 9 12 18 18 14 14 12 16 21 13 17 18 19 24 23 24 26 27 28 24 31 42 46
48 43 40 43 44 43 38 25 18 20 19 21 19 11 8 10 14 13 16 25 34 30 19 13 17 18 15 12 13 17 19 19 19 21 18 20 24 24 26 24 26 30 29 39 47
40 39 40 45 47 44 36 26 23 25 24 24 21 16 11 10 12 12 15 32 31 33 34 27 24 20 16 12 13 18 20 20 18 20 19 16 22 23 25 24 30 32 34 41 48
40 33 42 45 47 41 33 27 25 25 27 24 22 20 19 15 14 11 17 30 34 32 33 30 29 23 19 16 13 14 18 21 21 17 17 16 18 25 27 28 31 33 38 46 48
36 35 39 45 39 37 31 26 30 27 27 28 27 26 25 23 19 16 17 21 33 32 32 30 30 26 20 17 16 18 20 23 18 23 17 15 15 29 31 33 34 39 43 46 47
33 33 39 42 34 32 29 25 24 25 26 29 29 26 27 25 23 23 25 32 31 33 36 35 28 26 24 20 19 17 18 23 24 25 23 13 14 27 34 33 34 42 44 46 47
37 35 35 36 33 32 29 24 23 24 25 27 27 29 29 26 25 25 30 35 33 33 38 40 34 27 21 19 18 17 15 19 24 19 18 16 16 24 30 33 37 43 45 46 47
37 35 34 33 33 32 29 27 25 25 25 25 27 26 26 26 24 32 30 31 34 38 39 40 29 29 28 25 25 23 15 16 20 21 17 16 16 17 27 30 37 42 45 45 45
40 35 33 35 31 28 28 26 26 28 29 26 25 26 28 27 25 26 26 33 34 37 38 39 32 28 25 25 23 23 20 16 17 20 19 16 18 19 21 20 26 39 43 44 45
40 41 39 32 30 30 31 31 33 34 34 28 29 30 28 28 31 31 32 32 32 32 35 35 37 29 22 23 22 23 23 18 18 19 20 17 21 26 25 24 31 41 43 43 45

GFSSW_sfc_dewp_027.txt.gz
Dewpoint
52 51 51 52 51 51 52 52 52 52 52 51 51 52 53 53 53 40 35 34 39 59 60 45 44 42 43 37 33 33 30 28 28 27 25 25 27 28 31 32 32 33 33 34 36
51 51 51 51 51 51 51 50 51 51 52 52 52 51 52 53 44 32 44 54 59 61 27 31 39 36 38 40 36 34 36 32 30 28 27 27 27 28 31 31 32 32 33 34 35
50 50 50 51 51 51 50 50 50 51 51 52 52 52 51 50 33 18 57 58 57 55 22 22 35 35 33 31 36 35 35 35 32 31 31 29 28 29 29 30 31 31 33 34 36
48 50 50 51 51 51 50 50 50 50 50 51 52 51 51 43 15 41 49 51 55 46 31 23 20 29 30 29 29 30 35 35 33 33 31 31 31 31 31 33 34 34 35 36 36
50 50 51 51 51 51 51 50 50 50 51 51 51 51 45 33 27 37 52 50 36 37 42 30 21 24 30 28 29 29 28 29 30 31 32 32 32 32 32 34 34 34 35 35 35
50 51 51 51 51 51 52 51 52 52 51 51 51 51 42 29 26 25 27 28 33 31 37 33 25 25 29 30 28 29 29 28 28 28 30 31 31 31 34 35 34 33 33 33 33
50 50 51 51 51 50 51 51 51 52 51 51 51 46 40 31 25 23 27 26 24 25 26 29 29 26 27 29 30 29 29 30 30 28 27 28 27 29 30 32 32 32 32 32 31
50 51 51 51 51 51 51 52 52 51 51 52 51 45 38 27 23 21 22 22 25 27 30 27 27 29 26 28 27 26 30 28 29 29 27 28 29 30 31 31 32 30 28 29 31
51 52 51 51 51 51 52 52 51 51 51 50 47 42 31 37 30 27 25 21 23 25 28 27 25 24 26 23 25 29 26 27 27 29 28 28 28 30 31 31 32 31 30 29 31
51 51 51 51 51 51 51 51 49 48 48 43 40 34 32 18 13 26 28 28 25 25 25 27 23 20 19 22 21 24 24 25 25 26 26 26 27 28 29 27 29 30 29 30 31
50 51 51 51 51 51 48 36 32 35 37 30 23 28 21 18 15 14 19 23 29 27 23 26 22 14 16 21 22 22 23 23 24 25 25 25 26 27 29 28 28 30 31 32 33
50 51 51 51 51 51 46 31 32 34 31 28 22 20 19 16 14 13 16 19 25 25 22 22 21 18 15 16 17 19 20 22 24 24 25 26 26 27 28 28 29 29 31 32 34
51 51 51 51 50 47 35 33 34 34 31 25 20 18 18 18 18 16 15 15 14 20 22 18 20 19 15 14 14 17 19 22 22 24 25 25 23 24 25 28 29 30 31 32 34
51 51 51 51 45 36 31 35 34 36 26 13 18 20 24 25 24 22 19 14 12 12 17 19 16 17 17 15 13 16 17 20 23 24 20 22 18 25 25 27 27 28 30 32 34
51 51 50 49 42 35 34 34 35 36 13 9 18 26 22 22 21 25 27 22 12 10 12 14 18 16 17 16 15 14 15 19 22 22 22 20 18 21 24 22 25 30 31 34 35
51 49 49 42 42 38 37 36 36 29 13 9 21 27 20 21 19 21 23 27 24 14 10 12 14 17 16 16 16 15 13 16 20 20 19 22 20 20 21 24 28 30 31 33 32
51 49 46 41 37 38 38 35 31 22 10 11 17 17 21 16 13 16 17 24 20 18 16 10 12 16 17 15 17 16 18 13 17 17 19 20 18 22 26 28 30 29 31 28 29
50 48 45 41 41 41 40 37 25 14 14 14 14 13 10 10 11 22 16 13 17 20 29 9 5 13 18 16 16 18 19 13 17 16 15 18 18 22 29 27 27 28 28 38 43
48 42 38 41 42 41 40 30 26 18 17 18 19 20 15 6 4 11 11 10 21 29 35 22 6 6 15 17 15 17 16 18 18 18 11 16 22 27 29 28 27 24 27 43 45
42 36 38 41 44 41 39 27 23 20 21 21 19 24 19 14 16 16 13 27 22 26 34 32 29 9 10 17 18 17 17 16 18 18 17 17 23 22 24 24 25 26 29 39 47
43 33 40 41 42 41 34 25 19 19 21 27 24 22 20 17 16 12 13 21 28 25 28 30 35 29 13 19 16 13 14 17 20 16 15 19 19 27 27 27 28 32 31 40 47
38 31 35 38 41 37 32 22 26 18 20 22 28 26 23 24 24 18 13 22 29 28 25 28 31 30 25 18 17 15 17 20 20 22 18 19 19 25 28 28 33 32 34 43 47
32 30 38 39 36 34 30 22 18 18 19 23 25 25 28 27 28 23 25 36 33 32 34 36 31 24 33 29 19 16 15 19 24 26 23 16 19 27 32 31 31 39 41 45 47
34 37 33 35 32 31 29 27 24 23 21 20 21 24 33 27 25 28 29 32 36 36 37 39 34 27 32 27 18 17 15 18 24 21 21 18 18 25 31 33 38 41 44 45 46
36 36 33 35 33 31 31 29 25 26 27 25 23 23 25 24 22 31 31 30 32 36 38 39 33 27 27 36 31 16 15 16 20 22 21 21 19 26 31 34 38 43 43 44 44
40 33 33 34 32 29 29 31 26 27 30 28 29 25 25 26 27 27 28 31 35 35 38 39 34 30 20 35 32 23 16 16 18 20 20 19 19 22 30 25 33 39 42 43 44
39 38 39 33 32 30 31 28 29 29 30 29 29 30 29 29 33 32 30 30 29 31 32 36 37 29 25 32 31 22 21 17 17 22 20 18 18 20 21 23 25 36 40 42 44

GFSSW_sfc_dewp_030.txt.gz
Dewpoint
50 50 51 51 51 51 51 51 51 51 52 53 53 53 53 52 53 40 38 36 42 61 60 41 50 46 47 47 40 31 27 27 28 28 26 28 26 28 28 28 30 32 32 33 35
50 50 50 51 50 50 51 51 50 50 51 52 52 53 53 53 45 37 42 58 59 62 30 27 36 41 39 39 40 34 29 28 30 30 28 28 27 29 31 31 32 32 32 33 33
49 49 50 51 51 51 51 51 50 51 51 51 52 52 53 51 36 18 56 60 62 57 24 25 26 32 35 32 35 37 32 31 31 34 32 32 32 32 31 30 33 33 33 33 34
50 51 51 51 51 51 51 52 51 51 51 51 52 52 53 45 17 33 56 53 54 33 24 22 21 23 34 33 32 30 35 34 33 34 34 32 32 32 32 32 33 35 35 35 37
50 50 51 51 51 52 52 51 51 51 51 51 51 51 46 28 28 27 57 53 33 30 30 28 23 22 24 31 32 30 29 30 32 33 33 32 30 29 30 33 33 33 35 37 37
50 50 51 51 51 52 52 52 52 52 51 51 51 50 43 30 25 21 25 27 26 29 30 35 30 27 25 25 27 30 29 28 28 28 28 28 28 28 30 34 33 34 35 36 36
52 52 51 51 51 52 52 52 52 53 52 52 51 47 39 32 27 27 25 23 26 26 29 29 35 33 30 26 26 26 28 29 29 28 28 29 29 29 30 30 31 32 33 34 36
52 52 51 50 51 52 52 52 52 52 51 52 52 46 35 27 26 23 23 22 19 23 23 23 26 25 28 28 26 25 25 26 28 29 29 29 29 31 31 30 31 32 33 34 37
52 52 51 50 50 51 52 52 52 51 52 52 47 41 30 36 28 30 25 18 15 15 21 23 24 27 24 25 25 25 24 25 26 28 28 29 29 31 32 31 34 35 35 35 35
51 51 52 51 51 52 51 51 50 49 46 43 42 35 35 28 23 20 24 25 20 19 20 22 22 22 21 19 21 23 23 24 26 27 27 27 28 30 32 31 33 34 35 34 34
51 51 52 52 52 51 48 42 26 32 39 36 32 33 28 23 16 13 13 18 24 26 17 20 21 19 20 19 18 21 23 23 25 25 27 28 28 28 30 30 30 33 35 37 39
51 51 51 52 52 51 46 36 30 30 27 27 25 23 20 17 14 13 14 13 17 21 23 17 20 23 19 17 16 15 18 21 24 23 25 26 26 29 30 31 31 32 35 37 38
51 51 51 51 51 47 38 31 31 31 27 26 24 21 18 15 14 14 14 11 10 13 19 17 16 19 19 17 15 15 16 21 21 21 23 25 25 28 28 30 31 31 33 36 37
51 51 51 50 45 37 33 31 29 32 24 17 13 16 16 15 15 15 16 15 10 7 10 15 18 14 17 18 17 17 14 14 17 18 19 22 21 29 30 30 29 30 33 34 36
51 51 51 49 43 34 33 34 33 33 17 14 24 25 25 23 23 23 25 16 12 9 8 7 10 16 14 15 18 17 15 15 15 17 22 19 21 25 27 26 27 29 31 32 37
50 51 50 42 43 37 34 35 35 30 21 19 25 19 20 23 26 29 23 26 19 13 12 8 7 9 15 14 14 18 16 17 18 17 18 22 21 21 23 28 28 29 30 32 34
50 50 48 43 35 36 36 35 31 24 26 12 8 9 10 10 15 23 19 19 25 24 17 14 7 6 8 12 16 15 23 18 17 15 16 18 17 23 28 27 27 28 32 35 37
49 49 46 40 37 38 37 36 23 29 15 13 12 11 12 12 8 8 16 18 17 16 21 23 22 9 8 10 16 17 21 16 15 14 14 16 18 21 28 26 27 26 30 34 40
47 44 42 38 39 40 37 29 28 23 12 13 14 22 22 23 23 15 10 11 12 20 25 26 23 23 20 9 14 17 15 19 20 17 11 14 21 25 27 26 29 27 32 41 49
43 42 36 41 41 40 38 27 21 14 11 12 15 21 22 19 20 22 22 25 23 23 27 23 21 21 26 10 12 18 16 17 19 17 17 14 19 18 28 28 32 31 32 47 51
43 35 39 37 40 37 35 26 18 13 16 17 18 20 24 22 23 21 19 25 26 22 23 23 26 22 26 21 8 15 15 17 22 17 17 17 17 32 33 32 29 30 33 47 50
40 33 35 38 41 41 33 25 27 22 16 14 21 20 23 27 23 22 21 27 28 27 26 25 30 25 22 25 20 14 17 20 19 22 19 18 18 31 29 30 33 30 33 46 49
38 30 40 37 37 33 30 25 23 20 20 25 18 20 26 26 31 33 34 34 29 30 32 36 31 26 24 24 28 27 19 22 27 30 24 17 19 30 28 28 32 36 35 48 49
39 37 32 31 32 30 29 27 25 27 27 24 23 23 26 30 26 25 34 34 33 34 37 37 33 28 27 26 34 32 27 19 23 23 21 20 22 27 32 31 39 40 46 46 48
36 37 33 32 32 30 29 27 27 24 24 26 28 25 25 25 20 26 28 29 31 36 35 37 32 30 30 28 35 36 36 22 17 23 21 22 23 26 33 39 41 46 47 46 47
39 32 32 33 31 29 31 28 27 26 28 27 29 30 28 27 27 26 27 28 30 33 36 39 34 33 30 26 30 34 32 30 16 17 21 23 23 34 38 40 43 44 44 45 46
39 38 36 35 32 31 33 31 31 30 31 27 29 35 30 30 32 32 32 32 30 28 29 34 36 35 27 26 32 28 29 30 21 20 23 22 30 36 31 31 42 44 44 45 46

GFSSW_sfc_dewp_033.txt.gz
Dewpoint
50 50 50 50 51 50 50 52 51 51 52 52 52 53 53 53 54 45 39 39 46 56 60 43 52 46 46 47 48 46 34 27 27 28 29 30 29 29 32 31 33 36 38 40 40
50 50 50 50 50 50 51 52 52 51 51 52 52 52 53 54 49 43 45 56 57 63 41 30 27 47 46 43 46 46 35 29 28 28 28 30 30 32 33 33 34 35 38 37 35
50 50 51 51 50 52 52 51 51 52 51 51 52 52 53 52 42 27 57 58 56 61 34 30 28 28 40 39 39 39 37 35 31 30 30 31 33 35 33 32 35 35 36 36 36
50 51 51 51 51 51 51 52 52 51 51 51 51 52 52 48 23 32 59 61 62 49 32 27 23 20 21 32 35 34 37 38 35 33 32 31 33 34 34 32 33 33 37 38 37
51 51 51 51 51 52 52 52 52 52 52 51 51 51 46 38 35 29 58 54 32 30 28 25 21 21 19 21 32 32 32 32 34 35 34 34 33 33 34 33 32 31 33 35 37
51 51 51 50 51 52 53 53 53 53 52 52 51 51 45 37 32 26 25 30 33 27 25 26 25 25 22 22 21 29 33 33 31 30 30 30 29 30 30 31 31 30 32 34 35
52 52 51 51 51 52 52 52 52 52 51 51 51 47 42 38 31 29 31 28 25 24 26 30 34 31 26 24 25 25 24 25 27 30 29 28 27 28 30 31 31 30 29 30 33
52 52 51 51 52 52 53 52 52 52 51 52 52 46 39 36 36 34 33 30 27 23 21 23 24 23 26 28 29 28 26 23 25 26 27 29 26 29 31 31 34 32 31 33 35
50 52 52 51 51 52 52 52 53 52 52 52 48 45 35 39 33 30 28 25 22 19 19 17 20 22 24 25 22 26 25 24 25 26 26 28 27 30 31 31 31 32 32 32 33
50 51 52 52 51 52 52 52 50 51 47 44 43 40 36 32 28 25 30 27 23 21 17 15 18 21 20 21 20 22 24 24 24 26 26 26 26 27 28 28 30 31 32 33 34
50 51 51 51 52 51 49 44 32 37 41 30 28 37 36 34 31 20 17 20 22 23 16 18 17 19 19 20 23 21 24 24 25 25 25 25 26 27 29 30 29 31 34 35 38
50 50 51 52 52 51 48 42 30 29 26 27 26 25 25 24 21 20 18 15 16 15 23 21 14 17 21 20 20 20 17 16 20 25 24 24 25 28 28 27 27 27 30 34 39
51 51 51 52 51 48 40 32 31 31 27 25 24 24 24 23 22 20 17 15 12 10 13 18 20 16 18 20 19 18 17 15 16 19 19 19 21 23 24 27 28 31 33 35 36
50 51 51 51 45 41 34 33 33 34 25 24 29 28 24 22 20 19 17 15 12 8 8 8 11 19 15 17 19 17 18 18 17 18 15 21 17 19 20 23 25 26 30 32 31
50 50 51 50 44 41 37 35 37 35 20 26 24 30 17 23 25 25 30 15 14 12 9 6 7 9 14 16 16 17 21 18 18 16 15 16 18 16 25 26 30 30 30 32 35
49 50 50 45 45 42 37 37 36 31 22 28 15 11 9 13 13 21 29 30 26 14 12 9 9 7 5 6 15 15 18 18 18 17 15 15 16 14 17 20 27 29 31 30 31
49 49 48 43 40 36 38 36 30 24 27 15 10 17 17 22 21 21 22 25 31 26 12 11 10 8 8 7 8 10 12 13 16 15 14 15 17 17 23 26 27 26 28 30 34
49 48 47 42 43 40 39 34 21 24 23 11 9 15 17 18 20 23 21 18 28 29 26 23 19 22 21 7 6 8 13 12 14 15 14 16 15 17 22 22 25 24 27 40 44
47 44 44 43 40 41 36 27 23 24 19 16 15 14 17 19 23 30 25 22 25 25 28 25 20 24 22 20 15 7 8 15 13 16 15 15 16 17 17 18 24 27 35 49 52
44 42 42 41 43 41 35 28 25 22 24 23 14 16 17 21 23 29 27 25 26 25 29 23 21 19 17 16 19 25 14 16 13 12 14 17 14 16 17 23 20 32 42 50 52
44 41 42 37 42 39 29 30 25 25 24 19 22 18 18 24 26 22 26 26 29 28 34 30 24 21 20 16 19 24 13 10 16 14 14 17 17 20 19 20 26 34 48 50 50
42 37 39 41 37 38 32 27 29 24 27 28 29 25 23 25 25 24 27 32 38 34 30 29 31 26 23 26 24 23 21 10 14 16 16 19 16 23 27 31 32 41 48 49 50
40 39 43 40 33 32 31 26 25 25 30 31 25 26 28 28 29 33 34 34 34 33 32 34 30 26 24 23 26 24 26 23 18 22 16 15 17 18 24 32 30 43 48 48 50
42 36 37 37 34 31 28 27 28 28 26 25 26 28 29 27 26 27 34 34 36 36 38 36 30 27 25 26 32 32 32 33 33 22 17 18 18 17 29 28 36 45 47 48 49
42 37 35 32 32 32 34 34 32 28 27 28 29 29 29 28 27 28 29 28 28 35 35 37 29 30 29 30 28 31 30 29 30 31 23 19 20 17 31 43 42 46 47 47 48
40 36 37 36 33 32 34 37 36 33 31 28 30 31 31 32 30 29 30 30 30 35 35 38 34 33 30 31 30 28 26 27 29 30 30 24 19 34 42 44 44 45 46 47 48
42 42 40 36 32 31 31 32 36 36 32 30 30 33 35 35 34 33 32 32 31 30 30 34 35 34 28 30 30 26 27 26 28 28 30 26 19 39 43 47 46 46 45 46 47

GFSSW_sfc_dewp_036.txt.gz
Dewpoint
49 48 49 49 50 50 51 52 52 52 52 52 52 53 53 53 54 47 39 38 44 55 60 44 51 45 40 44 47 46 37 30 28 28 29 30 30 31 33 32 34 35 36 39 45
50 50 49 50 51 51 51 51 52 52 52 52 52 52 52 53 49 45 44 54 57 59 47 35 30 45 47 45 47 46 43 38 32 29 28 28 28 29 33 35 34 38 39 39 39
51 50 51 51 51 51 52 52 52 52 52 52 51 52 52 51 42 32 56 56 56 57 42 35 31 28 43 45 43 44 44 44 40 34 31 31 31 31 32 33 34 34 36 36 38
51 51 51 51 51 51 51 52 52 52 52 52 52 52 52 47 -3 33 56 57 61 54 46 34 26 24 24 37 41 38 41 43 42 39 36 33 32 32 33 33 36 35 36 37 36
51 51 51 51 51 51 51 51 52 52 51 51 51 51 47 41 40 22 49 41 32 54 38 34 26 21 19 20 22 31 36 37 39 39 38 37 35 34 34 36 36 36 33 35 38
51 51 51 51 51 52 53 53 53 52 51 51 51 49 43 36 34 33 30 29 27 27 37 28 24 23 22 22 21 25 25 31 33 32 33 33 33 32 33 34 31 31 33 33 35
51 51 51 51 52 53 53 53 52 53 52 51 51 46 42 38 38 32 30 28 29 28 24 26 25 25 25 24 24 22 23 24 24 26 32 32 30 30 31 31 30 31 32 33 33
49 50 51 51 52 52 52 52 52 52 53 53 51 46 38 40 40 40 39 36 33 31 27 23 22 30 28 27 25 26 25 21 24 25 26 27 25 30 32 31 33 32 31 31 32
51 51 51 51 50 51 52 52 52 53 52 52 49 46 39 43 39 38 36 30 27 25 21 18 19 21 24 23 23 23 25 27 26 27 26 26 24 28 31 30 31 32 33 33 32
51 51 51 51 51 52 52 52 51 51 48 46 44 42 40 34 34 34 31 29 27 25 22 21 15 18 21 23 20 22 23 25 27 27 26 26 25 26 27 27 28 28 29 31 32
49 50 51 51 52 52 50 45 31 29 33 29 26 35 33 33 33 26 27 23 29 27 18 19 13 12 16 19 21 23 23 24 27 26 26 26 26 27 29 29 30 30 30 31 33
49 49 51 51 52 52 47 41 32 29 27 30 28 27 28 28 26 26 25 21 20 15 20 16 14 15 15 20 21 20 21 22 21 19 24 26 25 26 27 27 27 28 30 32 33
50 50 50 51 51 46 41 36 34 33 28 27 32 30 25 27 26 25 25 22 17 13 12 20 21 18 15 17 19 19 18 19 20 19 17 17 17 20 21 24 26 28 31 32 33
50 50 50 50 43 42 38 37 35 33 26 27 27 25 24 24 22 25 25 23 17 12 11 9 10 11 14 15 16 17 20 20 19 18 15 17 13 17 17 19 21 22 27 28 28
50 50 50 50 44 41 39 38 36 33 18 20 26 24 22 22 22 19 26 29 18 15 11 9 8 11 10 13 18 15 20 22 20 20 18 17 16 14 19 18 21 21 25 25 25
50 50 50 44 44 43 41 37 36 27 17 26 21 17 19 18 20 25 25 33 32 30 18 11 11 8 7 7 8 10 17 19 18 18 16 15 15 13 14 15 21 28 29 27 28
50 49 48 45 39 42 40 36 24 18 25 22 19 19 17 18 20 26 25 27 29 28 25 16 12 11 10 8 9 9 9 13 12 16 15 17 16 14 20 21 21 20 23 27 29
49 49 46 45 44 42 38 30 17 22 24 27 26 22 17 21 22 27 25 23 27 31 29 24 24 20 23 15 9 7 9 13 10 15 14 17 15 17 19 17 17 19 27 27 34
48 43 44 43 43 40 33 24 20 25 29 26 31 18 16 23 24 28 26 27 26 33 28 24 21 23 20 21 20 19 6 7 11 13 14 17 16 18 18 16 17 18 27 44 53
42 41 42 42 40 39 31 27 27 27 24 27 29 23 21 23 25 26 26 27 31 33 33 25 20 21 19 19 18 18 24 11 13 12 10 15 18 18 18 19 22 22 31 51 54
41 39 42 36 42 36 25 29 29 27 29 28 27 25 24 23 26 26 24 29 35 33 34 30 25 22 24 18 14 17 21 18 14 13 12 13 15 22 20 22 22 23 45 52 54
39 35 39 39 33 32 27 30 32 26 29 32 32 27 27 28 27 27 28 31 33 35 31 31 31 27 23 22 21 20 24 22 13 11 18 15 14 19 22 21 24 30 50 52 54
38 38 41 38 33 27 30 30 31 31 30 30 29 29 31 29 27 31 33 34 34 33 33 34 27 23 19 18 30 25 29 33 30 18 11 13 15 17 21 22 31 47 50 52 53
39 33 35 35 33 30 30 33 32 34 31 29 27 30 31 30 29 29 29 32 34 35 37 37 31 25 19 19 28 30 29 31 30 30 17 12 16 18 18 18 32 47 49 51 53
38 32 34 28 31 33 32 34 33 33 34 32 30 29 29 31 30 28 31 31 31 34 36 34 29 30 29 29 28 28 28 28 29 29 29 27 29 27 27 22 34 47 49 51 53
35 35 37 35 35 32 32 33 35 35 34 32 32 31 33 33 35 32 31 31 31 32 34 35 30 32 29 30 30 28 28 29 29 26 27 29 29 30 29 42 43 47 49 50 52
39 41 40 35 32 31 32 34 35 34 35 34 32 32 32 34 36 35 35 34 33 30 33 36 34 31 26 31 32 28 29 29 26 29 29 27 28 32 35 51 52 50 49 49 51

GFSSW_sfc_dewp_042.txt.gz
Dewpoint
49 50 50 50 51 51 51 51 51 51 52 52 52 52 52 52 52 47 34 29 44 54 56 38 51 51 44 46 48 40 33 31 31 29 28 30 30 31 32 33 36 35 39 39 43
50 50 50 50 50 50 50 51 51 51 51 52 52 52 51 52 47 44 40 43 48 52 46 34 33 43 37 36 46 42 36 31 30 30 29 29 33 32 31 33 34 35 38 39 42
50 49 50 51 51 51 51 51 51 51 52 51 51 51 51 50 26 1 52 53 51 51 50 41 40 40 38 41 40 46 42 39 34 32 31 34 36 35 32 31 32 34 37 37 39
49 50 50 50 51 50 50 50 51 51 51 51 50 50 50 45 -12 16 51 47 46 45 47 44 33 29 28 44 43 41 44 43 42 40 43 38 38 38 37 35 35 35 36 39 38
50 50 51 50 50 50 51 51 52 51 51 51 50 51 44 37 31 34 45 40 29 27 48 45 32 28 25 27 37 42 41 44 45 44 45 45 43 42 40 41 40 38 39 40 40
49 50 50 50 50 51 51 52 52 52 51 51 51 51 41 35 36 38 35 38 31 27 26 43 33 29 24 22 26 26 34 39 38 36 34 35 35 36 39 40 39 39 39 37 36
50 50 50 50 50 50 52 53 53 52 52 51 52 47 41 35 40 39 41 39 35 35 24 26 40 33 25 23 23 24 22 23 24 27 29 33 32 33 34 35 35 34 34 34 35
50 50 50 50 50 50 52 53 53 54 53 51 51 44 38 42 42 42 40 38 38 39 33 28 26 23 25 25 26 23 20 20 23 24 25 28 26 30 33 33 33 34 34 35 36
49 50 50 50 50 51 52 52 53 52 52 52 46 41 36 43 41 41 38 32 33 32 34 30 25 21 26 23 22 24 21 21 22 24 25 25 24 31 32 32 33 33 33 34 34
49 50 50 50 51 52 52 53 51 51 50 48 46 38 31 25 29 32 36 32 31 29 26 23 17 18 21 22 17 20 23 23 25 26 24 24 24 26 28 29 30 31 31 32 32
49 50 50 51 51 51 48 36 34 32 32 30 28 30 29 31 32 29 30 28 27 28 18 18 13 14 19 21 21 21 22 24 26 28 26 24 24 25 28 28 28 29 30 30 31
49 49 50 50 51 51 42 35 34 35 31 32 30 30 30 30 28 27 29 24 20 18 17 17 14 16 19 20 20 20 20 20 22 23 23 23 21 23 23 25 28 29 30 31 32
49 49 50 50 51 44 41 38 38 33 30 28 28 27 29 29 26 26 27 24 20 17 15 14 17 18 15 15 16 19 19 20 21 23 22 22 21 22 24 23 21 22 26 31 31
49 49 50 50 41 42 38 39 41 35 25 23 25 24 25 26 23 22 27 23 20 16 15 13 13 12 12 15 15 12 20 21 23 22 18 20 17 19 20 20 21 21 22 23 29
49 49 48 48 42 40 38 42 39 29 8 21 26 28 28 23 21 24 28 27 23 20 16 16 9 11 10 10 14 13 14 14 20 19 18 18 17 15 17 16 17 17 17 18 25
50 48 48 45 41 42 42 39 33 20 7 24 26 27 27 27 23 25 27 34 35 31 30 23 16 11 10 10 11 15 16 16 19 20 16 16 16 14 12 11 12 18 19 20 20
49 49 47 45 34 41 39 30 19 15 23 24 25 27 26 25 23 25 25 26 28 27 26 27 21 17 13 9 13 10 8 11 12 15 12 17 17 12 18 21 20 24 22 24 25
49 46 46 45 43 42 32 23 16 19 24 27 26 26 24 23 23 25 27 28 32 31 28 28 21 21 17 12 10 9 8 10 9 14 12 16 16 15 20 19 20 23 22 23 24
47 42 41 42 45 37 29 22 19 23 27 27 26 25 21 23 25 25 25 28 31 34 31 29 26 29 21 16 11 12 8 8 5 11 5 14 14 18 18 17 18 23 22 23 25
39 40 40 42 40 34 30 26 26 28 29 28 26 26 23 23 25 26 26 30 30 32 36 31 26 28 26 20 19 14 12 7 8 3 7 12 14 15 18 20 19 23 23 25 27
39 36 39 40 39 33 25 27 29 30 32 31 28 28 25 25 27 26 26 27 33 33 34 32 27 23 24 21 15 17 17 16 11 11 10 10 13 21 20 22 25 23 24 27 39
36 31 39 38 31 27 24 28 34 32 35 34 32 31 27 28 28 27 27 28 34 34 31 32 30 26 24 25 26 20 19 22 17 15 12 14 13 17 19 23 28 26 29 38 53
37 37 41 34 23 23 29 31 32 32 33 34 33 31 31 32 29 31 30 33 32 33 32 34 28 23 19 24 28 23 25 22 24 28 24 14 11 18 21 22 28 28 31 38 55
37 30 32 33 31 28 30 30 28 32 35 34 32 32 33 32 31 33 31 32 32 34 35 35 33 25 19 21 25 24 25 26 28 26 15 16 19 21 23 29 29 29 33 43 55
34 29 33 25 27 30 33 31 29 28 35 35 33 32 32 32 29 28 31 32 33 34 33 34 30 29 29 29 29 27 27 27 25 25 27 24 24 29 29 29 29 30 36 49 55
26 31 33 29 31 30 29 31 29 30 32 30 33 31 31 31 30 31 32 34 35 33 32 35 28 30 28 28 30 29 29 29 28 26 25 26 27 30 30 32 40 37 43 50 55
37 35 35 30 28 26 26 30 30 31 32 34 35 34 32 32 34 34 34 34 33 33 30 30 32 26 23 27 28 25 27 27 29 28 26 25 26 29 28 44 45 44 50 51 55

GFSSW_sfc_dewp_045.txt.gz
Dewpoint
50 49 49 50 50 50 51 51 51 52 52 52 52 51 52 51 52 44 30 26 42 53 54 32 32 42 47 45 47 39 26 22 22 24 20 30 28 31 32 31 32 34 37 40 53
49 49 50 50 50 50 50 50 51 51 51 52 52 51 51 51 44 37 37 46 48 52 39 27 19 39 44 39 45 41 33 26 26 25 27 25 29 30 31 32 32 34 38 38 41
49 50 50 50 50 50 50 50 50 51 51 51 51 50 50 49 28 7 52 48 48 48 40 39 37 37 36 34 41 41 38 35 30 27 29 27 26 31 30 30 32 32 35 37 38
50 50 50 50 50 50 51 50 50 51 51 51 51 50 50 42 -4 33 49 46 46 32 40 45 36 25 32 33 35 33 37 39 39 36 34 31 31 31 32 32 34 37 40 39 39
50 50 50 50 50 51 51 52 52 52 52 52 51 51 44 32 25 28 46 41 37 32 29 42 31 24 22 28 34 35 32 35 37 40 42 43 42 41 40 41 43 44 44 42 41
50 50 50 50 51 51 52 52 52 52 51 52 52 51 41 22 30 37 37 39 37 33 28 34 38 28 27 25 27 31 35 34 35 41 43 41 39 40 40 42 41 40 39 39 39
49 50 50 50 50 51 52 53 53 53 54 50 50 48 41 30 36 39 41 39 37 35 29 27 25 36 28 22 25 25 26 27 34 37 38 38 37 36 38 38 38 37 37 38 38
50 50 50 50 50 51 52 53 53 54 54 52 50 45 39 39 42 41 41 38 38 38 34 32 25 25 33 28 23 22 23 22 25 25 29 34 31 33 33 33 34 34 35 36 39
50 50 49 50 51 51 52 53 53 52 53 52 47 43 33 41 35 36 40 32 31 34 35 30 28 23 26 26 21 21 17 21 22 25 25 27 27 29 30 31 34 36 37 37 37
49 49 49 49 51 51 52 52 51 53 50 48 46 37 32 24 28 29 33 36 30 28 25 24 25 20 21 23 17 16 19 18 20 23 25 25 26 27 29 30 32 33 34 35 37
49 49 49 50 50 51 48 37 34 33 35 29 29 29 28 29 30 27 29 28 27 27 21 21 16 14 16 23 23 21 21 20 22 25 25 25 26 26 28 29 29 30 33 35 37
48 49 49 50 50 51 43 35 36 37 33 32 32 31 31 30 28 23 27 24 22 19 19 18 14 16 18 17 21 22 21 21 23 23 25 26 26 28 28 29 30 31 33 35 36
48 48 49 49 50 44 41 37 39 35 32 30 28 26 25 27 25 21 25 23 20 19 19 18 17 15 17 17 18 20 21 21 21 23 24 24 24 26 26 28 28 29 30 32 34
48 48 48 48 43 43 37 40 42 37 26 21 23 25 26 28 24 22 26 25 21 19 17 16 17 13 13 14 17 18 19 20 21 22 19 23 18 23 24 25 27 28 28 30 32
48 48 48 47 44 39 39 42 38 33 7 20 25 28 28 25 24 20 26 26 25 23 21 19 18 18 13 14 14 16 18 17 17 17 19 19 18 19 21 21 22 25 26 28 29
49 48 48 46 46 43 42 40 35 22 9 19 25 24 24 25 23 22 23 27 31 29 29 26 27 22 13 12 13 14 16 18 19 17 14 16 16 15 15 18 20 21 22 25 28
49 49 46 43 36 42 40 34 21 16 22 21 23 24 24 25 21 22 22 24 28 24 23 25 25 25 20 12 11 11 16 11 10 12 12 14 14 16 20 21 20 22 24 27 30
49 45 48 46 45 44 34 23 14 19 22 25 26 25 23 22 21 22 23 22 29 30 30 30 20 30 22 19 11 10 12 8 2 6 7 13 12 12 20 21 24 25 28 30 32
46 44 43 43 44 40 32 26 24 23 26 27 27 23 22 22 24 24 24 25 28 32 27 27 27 32 31 23 14 11 10 12 10 13 6 10 14 15 18 20 18 20 26 33 36
44 42 40 42 42 38 33 27 25 26 29 29 26 25 22 23 24 25 24 26 26 31 34 29 27 29 32 25 17 14 13 9 8 6 3 8 12 10 18 19 25 28 29 32 36
42 38 40 41 41 36 34 28 29 30 31 30 28 27 27 27 26 25 24 23 29 29 32 30 30 23 30 27 19 16 15 14 12 9 6 7 10 23 22 27 30 30 30 31 34
41 34 41 39 38 34 31 29 33 31 33 33 33 31 30 28 27 26 24 26 29 32 28 32 33 25 23 25 26 24 21 21 14 10 11 10 10 21 26 28 32 30 29 33 38
38 37 41 37 33 31 31 30 31 31 30 32 30 32 32 31 30 30 29 30 31 31 29 33 29 20 17 24 27 22 23 23 22 24 19 12 8 16 23 24 26 30 29 31 37
37 34 32 34 33 30 29 27 27 29 30 34 32 32 33 34 30 31 30 29 31 33 37 37 31 24 20 20 25 25 24 24 26 19 16 16 17 20 22 22 26 29 31 29 32
35 33 35 30 26 28 31 27 28 28 32 31 33 33 30 32 29 28 30 30 32 34 34 34 27 27 26 27 27 26 24 23 22 24 22 16 16 19 22 28 30 30 29 26 29
34 33 35 32 31 32 30 29 28 30 30 28 31 31 32 31 30 29 29 32 35 35 33 35 28 28 24 24 25 23 23 23 23 24 24 24 23 25 27 27 27 27 30 30 34
38 37 37 32 30 30 30 28 28 29 30 32 32 33 33 31 32 33 34 34 35 35 32 35 32 28 20 23 26 22 22 23 24 24 23 21 23 25 25 27 30 31 37 40 45

GFSSW_sfc_dewp_048.txt.gz
Dewpoint
50 50 50 50 50 50 51 50 50 51 52 52 52 52 52 52 52 35 26 35 38 53 53 26 17 38 43 43 39 37 29 25 20 17 17 18 17 18 22 29 33 34 37 42 50
50 50 50 51 51 51 51 51 51 51 51 52 52 52 52 51 42 28 43 47 48 50 34 20 14 27 36 37 40 38 32 29 25 22 21 18 18 20 27 27 33 33 38 37 43
50 50 51 51 51 51 51 51 51 51 52 52 52 52 52 50 31 28 52 46 49 45 33 30 24 15 28 35 34 37 35 31 31 28 25 22 20 20 25 27 33 34 35 36 38
50 50 51 51 51 51 52 52 52 52 53 53 53 52 52 40 5 26 47 47 49 37 32 33 29 20 26 28 32 32 35 36 34 33 30 27 26 25 22 24 30 33 35 38 40
50 50 50 51 51 51 52 52 53 53 52 52 52 52 44 25 16 24 45 40 35 29 19 25 30 23 17 22 27 30 31 33 34 36 37 37 33 32 29 30 31 31 37 40 41
50 49 50 50 51 51 53 53 53 53 52 52 52 51 38 20 26 32 36 36 34 28 24 18 25 27 23 18 20 26 28 30 31 31 35 35 37 36 36 38 38 40 40 39 38
50 50 50 50 51 51 53 53 54 53 54 52 51 46 38 23 30 33 35 34 34 33 27 23 18 24 26 23 21 21 22 25 29 32 31 35 34 34 34 35 36 38 39 38 38
50 50 49 50 50 51 52 53 53 54 54 52 51 44 30 31 34 32 32 30 34 34 33 28 24 15 19 28 25 20 20 19 22 26 30 33 33 33 32 34 36 37 36 36 37
50 50 49 50 50 51 52 53 52 52 53 52 46 40 21 37 22 25 29 28 28 28 32 28 24 19 11 19 22 21 15 17 18 21 25 31 32 33 33 32 34 35 34 34 35
49 50 49 49 50 51 52 52 53 52 48 45 43 38 25 21 25 26 26 28 29 27 26 27 22 18 12 8 11 13 15 15 17 18 21 24 26 28 29 29 32 33 33 34 36
49 49 49 49 50 51 49 38 34 32 31 27 27 27 24 25 26 22 23 25 27 26 22 21 18 11 13 10 10 14 17 16 17 18 19 23 24 26 28 28 30 31 33 34 35
49 49 49 49 50 50 46 32 35 36 30 27 27 28 28 28 25 20 18 22 22 19 18 19 17 16 13 12 13 13 18 20 21 22 22 22 23 25 26 27 29 30 32 33 35
49 48 49 49 50 47 36 36 39 39 30 24 23 23 22 23 21 22 18 22 20 16 14 16 14 16 16 14 14 15 15 19 20 21 24 24 24 25 25 28 29 31 32 33 34
50 48 49 49 45 40 35 39 40 41 25 18 20 23 22 22 20 20 22 22 19 15 17 16 15 15 15 15 13 13 12 14 18 21 19 24 18 23 24 26 27 28 29 31 32
49 49 49 48 42 36 39 41 40 38 14 16 19 23 22 20 21 17 21 22 21 18 18 16 13 15 17 15 14 13 13 15 19 20 21 19 17 20 23 23 24 27 28 30 30
50 49 48 45 44 40 41 42 38 26 8 15 20 20 20 19 19 19 19 20 23 24 23 20 22 21 21 21 21 16 14 14 17 17 16 19 18 17 18 21 22 24 24 26 25
49 49 47 40 37 40 41 36 25 19 18 17 19 22 22 18 18 19 19 18 22 23 18 20 18 25 27 23 19 14 17 12 9 11 13 17 16 18 20 21 20 20 23 25 28
49 47 47 44 44 44 39 27 20 18 17 23 23 23 20 20 20 22 19 17 21 27 25 24 17 25 25 30 21 14 13 13 5 5 6 13 14 15 20 20 22 22 25 27 32
48 46 44 43 45 42 33 22 28 21 24 25 24 20 18 19 20 21 20 19 22 27 26 24 22 21 32 34 35 24 13 14 11 14 3 4 15 18 18 21 23 21 24 29 33
42 43 39 42 45 41 30 23 23 25 27 27 24 22 21 20 21 20 20 20 21 25 29 26 25 21 31 35 30 26 20 12 10 11 6 5 11 12 18 17 18 26 29 32 36
42 36 39 41 43 34 35 22 25 28 28 28 26 25 24 23 22 21 20 21 24 24 27 27 28 22 21 30 30 14 12 18 19 9 4 2 6 18 19 23 29 28 30 31 33
39 31 40 40 35 34 28 24 32 29 31 29 31 29 27 26 25 23 22 23 26 28 27 29 29 23 20 22 25 25 27 23 17 16 15 11 14 25 30 30 27 27 30 31 31
34 32 39 37 35 25 24 25 29 28 28 27 29 29 29 29 29 27 26 27 29 29 31 36 29 22 17 22 24 23 24 26 26 26 24 10 10 25 24 22 23 25 28 30 29
33 33 33 31 32 24 23 26 26 29 28 30 29 28 30 30 28 28 27 27 29 30 35 36 32 27 23 19 24 22 22 22 23 24 16 15 16 17 21 21 23 25 30 28 27
34 34 35 32 33 31 29 26 25 26 29 29 28 29 29 29 28 29 27 29 29 32 33 34 29 25 22 22 22 21 21 21 20 19 18 16 16 18 20 22 24 28 26 24 28
37 34 33 33 34 32 30 26 25 26 27 27 28 28 30 29 28 30 30 32 35 32 32 33 29 27 23 22 20 19 19 19 18 18 19 18 19 22 23 23 23 23 24 25 30
39 37 37 33 30 30 30 27 27 29 29 29 31 31 32 31 32 33 33 34 34 37 33 34 30 29 22 19 21 20 20 18 17 16 16 15 18 21 21 22 24 25 26 30 34